STARLINK-32510, 62040

Orbit data source: Space-Track

STARLINK-32510, 62040 is a payload satellite owned by SpaceX/Seattle (US) in LEO that was launched on Thu, 21 Nov 2024 UTC via an FALCON 9 launch vehicle from the Air Force Eastern Test Range (AFETR). Payload-class satellites include a variety of spacecraft equipped with specific instruments for various scientific and technological missions. These include communications satellites like Starlink; space stations such as the ISS; scientific satellites like the Hubble; Earth observation satellites from companies like Planet Labs, Umbra, and HawkEye 360; GPS; miniature CubeSats for education and research; and military/defense satellites.

Loading next visibility...
Identifier
62040, 2024-216J
Orbit
LEO
Last TLE update
2 hours ago
Origin
Manufacturer
SpaceX/Seattle
Mission
Operational Commercial Communications
Bus & Motor
STARLINK V2M, Unknown motor
Mass
730 kg wet, ~700 kg dry
Launch date (UTC)
2024-11-21 (8 months ago)
Launch vehicle
FALCON 9
Launch site
Air Force Eastern Test Range (AFETR)
Object type
Payload
Rocket body
Debris
Shape & HBR
Box + 2 Pan, 14.5 m
Radar Cross Section
36.964 m², Large (>1 m²)

Expand to show TLE details & history

TLE from 2 hours ago
0 STARLINK-32510
1 62040U 24216J   25199.90106637  .00016335  00000-0  60176-3 0  9996
2 62040  43.0010 144.1661 0001198 263.4884  96.5831 15.27583081 37966
Epoch: 2025-07-18T21:37Z
TLE epoch observation values (Epoch: 2025-07-18T21:37:32.134Z)
Latitude
-0.00003°
Longitude
-117.16371°
Altitude
482.91 km
Speed
7.626 km/s
True Right ascension
09h 36m 39s
True Declination
0° 00' 00"
Sunlit
Object was in daylight at epoch
Visualization orbit readout
Latitude
26.09533°
Longitude
-86.08612°
Altitude
483.625 km
Speed
7.627 km/s
Apparent Right ascension
10h 00m 23s
Apparent Declination
-36° 33' 17"
Sunlit
Object is in daylight
Visualization observer readout
Local Sidereal Time
12:09:43
Azimuth
205.712° SW
Elevation
7.955°
Doppler factor
1
Orbital elements
Apogee altitude
485.807 km
Perigee altitude
484.163 km
Semi-major axis
6,863.122 km
Eccentricity
0.00012
Inclination
43.001°
RAAN
144.1661°
Arg. of periapsis
263.4884°
True anomaly
96.59674°
Mean anomaly
96.5831°
Eccentric anomaly
96.58992°
Mean motion
3.81734 °/min
Orbital period
94.31 mins
BSTAR
0.00060176
Loading maneuver chart data...
Loading SW <> Apogee altitude chart data...
Loading historical data...
Loading historical data...
Loading historical data...
Loading historical data...
Loading historical data...
Loading historical data...
Loading historical data...
|